This demonstration page uses our WeatherBlox Daily Observations layout. Learn more.

38.89511, -77.03637

Hourly Observations for June 25, 2018

Temp ( °F °C ) Dew Point ( °F °C ) Humidity (%) Winds ( mph kmh ) Pressure ( in mb ) Visibility ( mi km ) Precip ( " mm )
12:52 am 00:52 Mostly Cloudy 72 22.2 69 20.6 91 91 SSW 5 7 29.91 1013 10 16.09344 0 0
1:52 am 01:52 Mostly Cloudy 71 21.7 69 20.6 94 94 SW 3 6 29.91 1013 10 16.09344 0 0
2:52 am 02:52 Mostly Cloudy 72 22.2 69 20.6 91 91 S 6 9 29.91 1013 9 14.484096 0 0
3:52 am 03:52 Mostly Clear 72 22.2 67 19.4 84 84 NNW 6 9 29.91 1013 10 16.09344 0 0
4:52 am 04:52 Mostly Cloudy 72 22.2 66 18.9 82 82 Calm 29.97 1015 10 16.09344 0 0
5:52 am 05:52 Mostly Cloudy 73 22.8 63 17.2 71 71 NW 13 20 29.97 1015 10 16.09344 0 0
6:52 am 06:52 Mostly Cloudy 73 22.8 64 17.8 74 74 NNW 9 15 30 1016 10 16.09344 0 0
7:52 am 07:52 Mostly Cloudy 75 23.9 65 18.3 71 71 N 9 15 30 1016 10 16.09344 0 0
8:52 am 08:52 Partly Cloudy 77 25 65 18.3 66 66 N 13 20 30.03 1017 10 16.09344 0 0
9:52 am 09:52 Partly Cloudy 77 25 63 17 61 61 NNW 16 26 30.06 1018 10 16.09344 0 0
10:52 am 10:52 Mostly Cloudy 80 26.7 59 15 49 49 N 9 15 30.06 1018 10 16.09344 0 0
11:52 am 11:52 Mostly Cloudy 82 27.8 60 15.6 47 47 N 8 13 30.06 1018 10 16.09344 0 0
12:52 pm 12:52 Mostly Cloudy 82 27.8 60 15.6 47 47 NNW 6 9 30.06 1018 10 16.09344 0 0
1:52 pm 13:52 Mostly Cloudy 84 28.9 62 16.7 48 48 N 12 19 30.06 1018 10 16.09344 0 0
2:52 pm 14:52 Cloudy 84 28.9 61 16.1 46 46 N 10 17 30.06 1018 10 16.09344 0 0
3:52 pm 15:52 Mostly Cloudy 83 28.3 61 16.1 48 48 NNE 3 6 30.06 1018 10 16.09344 0 0
4:52 pm 16:52 Mostly Cloudy 82 27.8 62 16.7 51 51 N 7 11 30.06 1018 10 16.09344 0 0
5:52 pm 17:52 Mostly Cloudy 83 28.3 61 16.1 48 48 NNE 7 11 30.06 1018 10 16.09344 0 0
6:52 pm 18:52 Mostly Cloudy 80 26.7 61 16.1 52 52 NNE 7 11 30.06 1018 10 16.09344 0 0
7:52 pm 19:52 Mostly Cloudy 79 26.1 60 15.6 52 52 NNE 13 20 30.09 1019 10 16.09344 0 0
8:52 pm 20:52 Clear 78 25.6 59 15 52 52 NNE 8 13 30.09 1019 10 16.09344 0 0
9:07 pm 21:07 Partly Cloudy 78 25.6 60 15.6 54 54 NNE 8 13 30.12 1020 10 16.09344 0 0
9:52 pm 21:52 Mostly Cloudy 76 24.4 58 14.4 54 54 ENE 13 20 30.12 1020 10 16.09344 0 0
10:52 pm 22:52 Mostly Cloudy 74 23.3 58 14.4 57 57 ENE 7 11 30.12 1020 10 16.09344 0 0
11:52 pm 23:52 Mostly Cloudy 73 22.8 59 15 62 62 ENE 5 7 30.15 1021 10 16.09344 0 0

Powered by AerisWeather